Location: Arrodets-la-Barthe
(43.0306°N, 0.2829°E)
Time: 19:20:04
(UTC+00:00)

Okean-O - Pass Details

Date: 24 October 2021
Orbit: 639 x 640 km, 98.2° (Epoch: 02 December)

Event Time Altitude Azimuth Distance (km) Brightness Sun altitude
Exits shadow 18:02:44 17° 78° (ENE) 1,643 4.1 -11.7°
Maximum altitude 18:03:34 17° 63° (ENE) 1,602 4.1 -11.9°
Drops below altitude 10° 18:06:29 10° 22° (NNE) 2,041 4.9 -12.4°
Sets 18:09:18 0° 3° (N) 2,955 6.0 -12.9°
